User: anonymous   Login
Location: Betra
(48.4113°N, 8.6634°E)
Time: 01:54:41
(UTC+00:00)
Language:

Cosmos 1408 - Orbit

View from above orbital plane
View from above orbital plane
View from above satellite
View from above satellite

Ground track
Ground track

The orbit data is extracted from the following two-line orbital elements,

1 13552U 82092A   24200.51992694  .00079346  00000-0  65750-3 0  9995
2 13552  82.5515 208.9357 0012518 196.4848 163.6009 15.69850258150397
Epoch (UTC): 18 July 2024 12:28:41
Eccentricity: 0.0012518
inclination: 82.5515°
perigee height: 351 km
apogee height: 368 km
right ascension of ascending node: 208.9357°
argument of perigee: 196.4848°
revolutions per day: 15.69850258
mean anomaly at epoch: 163.6009°
orbit number at epoch: 15039

The dashed part of the orbit path shows where the satellite is in the earth's shadow,  

DLR